Weather History for Ahwaz, Iran

Change the Weather History Date:

Tuesday, February 12, 2013

  Actual Average Record
Temperature  
Mean Temperature 66 °F -  
Max Temperature 77 °F - - ()
Min Temperature 55 °F - - ()
Cooling Degree Days 1    
Growing Degree Days 16 (Base 50)    
Moisture  
Dew Point 55 °F    
Average Humidity 66    
Maximum Humidity 88    
Minimum Humidity 39    
Precipitation  
Precipitation 0.00 in - - ()
Sea Level Pressure  
Sea Level Pressure 29.85 in    
Wind  
Wind Speed 5 mph ()    
Max Wind Speed 14 mph    
Max Gust Speed -    
Visibility 3.8 miles    
Events      
T = Trace of Precipitation, MM = Missing Value Source: Averaged Metar Reports

Daily Weather History Graph

Daily Weather History Graph

Search for Another Location

Airport:

Trip Planner

Search our weather history database for the weather conditions in past years. The results will help you decide how hot, cold, wet, or windy it might be!

Date:

Astronomy

Feb. 12, 2013 Rise Set
Actual Time 6:59 AM IRST 5:59 PM IRST
Civil Twilight 6:34 AM IRST 6:24 PM IRST
Nautical Twilight 6:06 AM IRST 6:53 PM IRST
Astronomical Twilight 5:37 AM IRST 7:21 PM IRST
Moon 7:56 AM IRST (2/12) 8:22 PM IRST (2/12)
Length of Visible Light 11h 50m
Length of Day
11h 00m
Waxing Crescent, 5% of the Moon is Illuminated
Feb 12
Waxing Crescent
Feb 18
First Quarter
Feb 25
Full
Mar 5
Last Quarter
Mar 11
New

Hourly Weather History & Observations

Time (IRST) Temp. Dew Point Humidity Pressure Visibility Wind Dir Wind Speed Gust Speed Precip Events Conditions
12:00 AM 60.8 °F 51.8 °F 72% 29.83 in - ESE 4.6 mph - N/A   Clear
12:30 AM 62.6 °F 51.8 °F 68% 29.80 in - East 4.6 mph - N/A   Clear
1:30 AM 59.0 °F 51.8 °F 77% 29.80 in - Calm Calm - N/A   Clear
2:30 AM 57.2 °F 51.8 °F 82% 29.80 in - East 4.6 mph - N/A   Clear
3:30 AM 58 °F 51 °F 70% 29.80 in 6 mi Calm Calm - -  
3:30 AM 57.2 °F 50.0 °F 77% 29.77 in - Calm Calm - N/A   Clear
4:30 AM 55.4 °F 51.8 °F 88% 29.77 in - Calm Calm - N/A   Clear
5:30 AM 59.0 °F 50.0 °F 72% 29.77 in - Calm Calm - N/A   Clear
6:30 AM 62.6 °F 50.0 °F 63% 29.77 in 6.2 mi South 4.6 mph - N/A   Partly Cloudy
7:00 AM 62.6 °F 50.0 °F 63% 29.77 in 5.0 mi South 6.9 mph - N/A   Unknown
7:30 AM 64.4 °F 53.6 °F 68% 29.80 in 5.0 mi South 6.9 mph - N/A   Unknown
7:58 AM 66.2 °F 53.6 °F 64% 29.80 in 4.3 mi South 4.6 mph - N/A   Unknown
8:20 AM 64.4 °F 55.4 °F 73% 29.80 in 4.3 mi SSE 4.6 mph - N/A   Clear
8:30 AM 64.4 °F 55.4 °F 73% 29.80 in 4.3 mi SSE 4.6 mph - N/A   Clear
9:00 AM 66.2 °F 55.4 °F 68% 29.80 in 4.3 mi SE 4.6 mph - N/A   Clear
9:20 AM 64.4 °F 55.4 °F 73% 29.83 in 4.3 mi SSE 4.6 mph - N/A   Clear
9:30 AM 64 °F 55 °F 64% 29.85 in 4 mi SSE 4.5 mph - -   Haze
9:30 AM 64.4 °F 55.4 °F 73% 29.83 in 4.3 mi SSE 4.6 mph - N/A   Clear
10:00 AM 66.2 °F 55.4 °F 68% 29.83 in 4.3 mi SSE 9.2 mph - N/A   Clear
10:30 AM 68.0 °F 59.0 °F 73% 29.86 in 4.3 mi South 9.2 mph - N/A   Clear
10:58 AM 69.8 °F 59.0 °F 68% 29.86 in 4.3 mi South 11.5 mph - N/A   Clear
11:20 AM 69.8 °F 59.0 °F 68% 29.86 in 3.7 mi South 13.8 mph - N/A   Clear
11:30 AM 69.8 °F 59.0 °F 68% 29.86 in 3.7 mi South 13.8 mph - N/A   Clear
11:58 AM 69.8 °F 59.0 °F 68% 29.86 in 2.5 mi SSE 9.2 mph - N/A   Haze
12:20 PM 71.6 °F 59.0 °F 64% 29.86 in 2.5 mi South 13.8 mph - N/A   Haze
12:30 PM 71.6 °F 59.0 °F 64% 29.86 in 2.5 mi South 13.8 mph - N/A   Haze
12:59 PM 71.6 °F 59.0 °F 64% 29.86 in 3.1 mi SSW 6.9 mph - N/A   Haze
1:20 PM 75.2 °F 60.8 °F 61% 29.86 in 3.1 mi SW 6.9 mph - N/A   Haze
1:30 PM 75.2 °F 60.8 °F 61% 29.86 in 3.1 mi SW 6.9 mph - N/A   Haze
2:30 PM 75.2 °F 60.8 °F 61% 29.86 in 2.5 mi SW 4.6 mph - N/A   Haze
3:30 PM 76 °F 56 °F 39% 29.88 in 2 mi South 4.5 mph - -   Haze
3:30 PM 77.0 °F 55.4 °F 47% 29.86 in 2.5 mi South 4.6 mph - N/A   Haze
4:30 PM 77.0 °F 55.4 °F 47% 29.86 in 2.5 mi West 4.6 mph - N/A   Haze
5:30 PM 73.4 °F 55.4 °F 53% 29.89 in 3.1 mi West 4.6 mph - N/A   Haze
6:30 PM 71.6 °F 57.2 °F 60% 29.89 in 3.7 mi WSW 4.6 mph - N/A   Clear
7:30 PM 68.0 °F 57.2 °F 68% 29.92 in 3.7 mi Calm Calm - N/A   Clear
8:30 PM 66.2 °F 55.4 °F 68% 29.92 in 4.3 mi Calm Calm - N/A   Clear
9:15 PM 68 °F 53 °F 50% 29.96 in 4 mi WNW 4.5 mph - -   Haze
9:30 PM 68.0 °F 53.6 °F 60% 29.95 in 4.3 mi WNW 4.6 mph - N/A   Clear
10:30 PM 66.2 °F 57.2 °F 73% 29.95 in 3.7 mi NNW 9.2 mph - N/A   Clear
11:30 PM 64.4 °F 55.4 °F 73% 29.98 in 5.0 mi West 9.2 mph - N/A   Clear